Seward, AK

7:27 AM AKDT on June 22, 2017 (GMT -0800)
Seward

Weather History for PAWD - March, 2013

Change the Weather History Date:

Tuesday, March 12, 2013

  Actual Average Record
Temperature  
Mean Temperature 29 °F -  
Max Temperature 33 °F 37 °F 48 °F (1965)
Min Temperature 26 °F 26 °F 3 °F (1953)
Degree Days  
Heating Degree Days 36    
Moisture  
Dew Point 13 °F    
Average Humidity 50    
Maximum Humidity 56    
Minimum Humidity 42    
Precipitation  
Precipitation 0.00 in - - ()
Sea Level Pressure  
Sea Level Pressure 30.06 in    
Wind  
Wind Speed 18 mph (North)    
Max Wind Speed 29 mph    
Max Gust Speed 39 mph    
Visibility 10 miles    
Events      
Averages and records for this station are not official NWS values.
T = Trace of Precipitation, MM = Missing Value Source: NWS Daily Summary

Daily Weather History Graph

Daily Weather History Graph

Search for Another Location

Airport or City:

Trip Planner

Search our weather history database for the weather conditions in past years. The results will help you decide how hot, cold, wet, or windy it might be!

Date:

Astronomy

Mar. 12, 2013 Rise Set
Actual Time 8:22 AM AKDT 7:53 PM AKDT
Civil Twilight 7:40 AM AKDT 8:35 PM AKDT
Nautical Twilight 6:51 AM AKDT 9:24 PM AKDT
Astronomical Twilight 6:00 AM AKDT 10:16 PM AKDT
Moon 8:09 AM AKDT (3/12) 9:53 PM AKDT (3/12)
Length of Visible Light 12h 54m
Length of Day
11h 31m
New Moon, 1% of the Moon is Illuminated
Mar 12
New Moon
Mar 19
First Quarter
Mar 27
Full
Apr 2
Last Quarter
Apr 10
New

Hourly Weather History & Observations

Time (AKDT) Temp. Windchill Dew Point Humidity Pressure Visibility Wind Dir Wind Speed Gust Speed Precip Events Conditions
12:53 AM 32.0 °F 22.1 °F 18.0 °F 56% 30.17 in 10.0 mi North 13.8 mph - N/A   Clear
1:53 AM 30.9 °F 21.2 °F 16.0 °F 54% 30.16 in 10.0 mi North 12.7 mph 21.9 mph N/A   Clear
2:53 AM 30.9 °F 18.4 °F 15.1 °F 52% 30.16 in 10.0 mi North 20.7 mph 31.1 mph N/A   Clear
3:53 AM 30.0 °F 17.2 °F 15.1 °F 54% 30.14 in 10.0 mi North 20.7 mph 27.6 mph N/A   Clear
4:53 AM 30.0 °F 17.5 °F 14.0 °F 51% 30.14 in 10.0 mi NNW 19.6 mph 28.8 mph N/A   Clear
5:53 AM 28.9 °F 16.9 °F 14.0 °F 54% 30.12 in 10.0 mi North 17.3 mph 26.5 mph N/A   Clear
6:53 AM 28.0 °F 14.6 °F 12.9 °F 53% 30.12 in 10.0 mi NNW 20.7 mph 33.4 mph N/A   Clear
7:53 AM 27.0 °F 11.9 °F 12.9 °F 56% 30.10 in 10.0 mi North 25.3 mph 39.1 mph N/A   Clear
8:53 AM 27.0 °F 13.2 °F 12.0 °F 53% 30.09 in 10.0 mi North 20.7 mph 35.7 mph N/A   Clear
9:53 AM 26.1 °F 11.3 °F 12.0 °F 55% 30.09 in 10.0 mi North 23.0 mph 33.4 mph N/A   Clear
10:53 AM 27.0 °F 11.0 °F 10.9 °F 51% 30.08 in 10.0 mi North 28.8 mph 39.1 mph N/A   Clear
11:53 AM 27.0 °F 12.8 °F 12.0 °F 53% 30.09 in 10.0 mi North 21.9 mph 31.1 mph N/A   Clear
12:53 PM 28.9 °F 16.5 °F 12.0 °F 49% 30.08 in 10.0 mi North 18.4 mph 35.7 mph N/A   Clear
1:53 PM 30.0 °F 16.3 °F 12.0 °F 47% 30.06 in 10.0 mi NNW 24.2 mph 34.5 mph N/A   Clear
2:53 PM 30.9 °F 18.1 °F 12.0 °F 46% 30.04 in 10.0 mi North 21.9 mph 31.1 mph N/A   Clear
3:53 PM 32.0 °F 20.1 °F 12.0 °F 44% 30.03 in 10.0 mi North 19.6 mph 27.6 mph N/A   Clear
4:53 PM 32.0 °F 22.1 °F 12.0 °F 44% 30.01 in 10.0 mi North 13.8 mph 25.3 mph N/A   Clear
5:53 PM 32.0 °F 23.0 °F 12.0 °F 44% 29.99 in 10.0 mi NNW 11.5 mph - N/A   Clear
6:53 PM 30.9 °F 20.7 °F 10.9 °F 43% 29.98 in 10.0 mi North 13.8 mph 21.9 mph N/A   Clear
7:53 PM 30.9 °F 21.7 °F 10.0 °F 42% 29.98 in 10.0 mi NNE 11.5 mph 23.0 mph N/A   Clear
8:53 PM 28.9 °F 18.2 °F 10.0 °F 45% 29.96 in 10.0 mi North 13.8 mph 19.6 mph N/A   Clear
9:53 PM 27.0 °F 15.2 °F 10.9 °F 51% 29.96 in 10.0 mi North 15.0 mph - N/A   Clear
11:53 PM 26.1 °F 14.5 °F 10.0 °F 51% 29.94 in 10.0 mi NNE 13.8 mph 21.9 mph N/A   Clear